Hourly Data Report for January 04, 2018

All times are specified in Local Standard Time (LST). Add 1 hour to adjust for Daylight Saving Time where and when it is observed.

BARRIE-ORO
ONTARIO

44°29'00.000" N
79°33'00.000" W
289.00 m
6117700
71314
XBI

Download Data

Hourly Data (January 2018)
Hourly Data Report for January 4, 2018
Temp Definition
°C
Dew Point Temp Definition
°C
Rel Hum Definition
%
Wind Dir Definition
10's deg

Wind Spd Definition
km/h
Visibility Definition
km
Stn Press Definition
kPa
Hmdx Definition


Wind Chill Definition


Weather Definition


TIME
00:00 -10.6 -12.7 84 25 11   97.66   -16 LegendNANA
01:00 -9.9 -12.7 80 23 10   97.67   -15 LegendNANA
02:00 -9.6 -12.5 79 25 8   97.66   -14 LegendNANA
03:00 -9.8 -11.6 86 25 10   97.68   -15 LegendNANA
04:00 -9.4 -11.4 86 30 24   97.65   -18 LegendNANA
05:00 -11.6 -13.4 87 31 16   97.69   -19 LegendNANA
06:00 -13.7 -15.9 84 32 15   97.76   -21 LegendNANA
07:00 -15.9 -18.3 82 33 13   97.81   -23 LegendNANA
08:00 -16.8 -19.1 82 33 17   97.81   -26 LegendNANA
09:00 -16.5 -19.0 80 32 25   97.75   -27 LegendNANA
10:00 -17.7 -20.7 78 32 25   97.70   -29 LegendNANA
11:00 -17.8 -21.2 75 32 26   97.73   -29 LegendNANA
12:00 -17.5 -21.3 72 34 22   97.79   -28 LegendNANA
13:00 -16.8 -21.3 68 33 19   97.72   -26 LegendNANA
14:00 -16.6 -21.4 66 32 18   97.65   -26 LegendNANA
15:00 -17.4 -21.9 68 33 21   97.66   -27 LegendNANA
16:00 -18.2 -22.1 71 32 24   97.64   -29 LegendNANA
17:00 -19.4 -22.9 74 32 21   97.68   -30 LegendNANA
18:00 -20.0 -23.5 74 33 25   97.72   -32 LegendNANA
19:00 -20.7 -24.1 74 33 25   97.76   -33 LegendNANA
20:00 -21.4 -25.0 73 33 23   97.79   -33 LegendNANA
21:00 -22.0 -25.7 72 33 26   97.80   -34 LegendNANA
22:00 -22.7 -26.5 71 34 30   97.79   -36 LegendNANA
23:00 -23.5 -27.3 71 33 29   97.79   -37 LegendNANA

Notes on Data Quality.

Legend

  • E = Estimated
  • M = Missing
  • NA = Not Available
  • ‡ = Partner data that is not subject to review by the National Climate Archives
Date modified: